Weather reports worldwide

Advertisment
Santiago de Compostela/Labacolla, Spain (8042): temperature & dewpoint: 16.06.2018 20:00:00 - 22.06.2018 20:00:00 (CEST)Santiago de Compostela/Labacolla, Spain (8042): wind speed: 16.06.2018 20:00:00 - 22.06.2018 20:00:00 (CEST)Santiago de Compostela/Labacolla, Spain (8042): wind direction: 16.06.2018 20:00:00 - 22.06.2018 20:00:00 (CEST)Santiago de Compostela/Labacolla, Spain (8042): reduced air pressure: 16.06.2018 20:00:00 - 22.06.2018 20:00:00 (CEST)Santiago de Compostela/Labacolla, Spain (8042): visibility: 16.06.2018 20:00:00 - 22.06.2018 20:00:00 (CEST)
Date & Time tt [°C] td [°C] ff [km/h] ff [kn] dd ppp [hPa] vv [km]
22.06.2018 20:00:00 25,1 18,1 8 4 E 1016,2 30
22.06.2018 19:00:00 26,6 19,2 8 4 NNE 1016,1 27
22.06.2018 18:00:00 27,8 19,0 8 4 NNE 1016,2 30
22.06.2018 17:00:00 27,1 19,1 8 4 NNE 1016,5 28
22.06.2018 16:00:00 27,4 19,0 8 4 NNE 1017,0 30
22.06.2018 15:00:00 26,3 18,8 4 2 ESE 1017,7 30
22.06.2018 14:00:00 25,8 18,8 8 4 N 1018,1 30
22.06.2018 13:00:00 24,9 18,3 5 3 ESE 1018,6 30
22.06.2018 12:00:00 22,8 18,0 9 5 ESE 1019,1 30
22.06.2018 11:00:00 20,9 17,1 8 4 SE 1019,9 28
22.06.2018 10:00:00 19,4 16,1 5 3 E 1019,7 30
22.06.2018 09:00:00 17,8 15,8 5 3 E 1019,8 23
22.06.2018 08:00:00 16,3 15,3 4 2 ESE 1019,8 15
22.06.2018 07:00:00 16,1 15,3 4 2 ESE 1019,5 16
22.06.2018 06:00:00 16,5 15,5 8 4 ESE 1019,6 21
22.06.2018 05:00:00 16,9 15,6 4 2 NE 1018,9 30
22.06.2018 04:00:00 17,5 15,7 5 3 N 1018,7 30
22.06.2018 03:00:00 17,3 15,8 8 4 ENE 1019,2 25
22.06.2018 02:00:00 17,7 15,3 4 2 ENE 1020,5 30
22.06.2018 01:00:00 17,5 15,3 5 3 E 1021,3 30
22.06.2018 00:00:00 17,2 15,0 4 2 ESE 1020,8 30
21.06.2018 23:00:00 17,9 15,0 5 3 NE 1020,0 30
21.06.2018 22:00:00 19,0 15,3 8 4 NE 1019,8 30
21.06.2018 21:00:00 20,9 15,9 11 6 NE 1018,9 30
21.06.2018 20:00:00 22,6 16,3 9 5 NE 1018,5 35
21.06.2018 19:00:00 24,3 16,4 9 5 NE 1018,2 30
21.06.2018 18:00:00 26,5 16,6 15 8 NNE 1017,6 30
21.06.2018 17:00:00 26,8 19,0 13 7 NNE 1017,6 30
21.06.2018 16:00:00 28,0 19,6 9 5 NNE 1017,7 30
21.06.2018 15:00:00 26,7 18,1 11 6 N 1018,5 30
21.06.2018 14:00:00 25,2 17,8 5 3 E 1019,1 25
21.06.2018 13:00:00 24,1 17,5 8 4 E 1019,5 23
21.06.2018 12:00:00 22,4 17,4 8 4 ESE 1019,7 30
21.06.2018 11:00:00 21,3 17,2 8 4 ESE 1019,8 12
21.06.2018 10:00:00 20,3 17,1 5 3 E 1019,1 30
21.06.2018 09:00:00 17,2 16,1 0 0 N 1019,7 6
21.06.2018 08:00:00 15,6 15,1 4 2 N 1019,2 2,2
21.06.2018 07:00:00 15,3 14,7 4 2 NNE 1019,2 3,8
21.06.2018 06:00:00 15,6 15,0 4 2 N 1018,9 6
21.06.2018 05:00:00 16,1 15,3 8 4 N 1018,6 7
21.06.2018 04:00:00 16,5 15,5 4 2 E 1018,9 8
21.06.2018 03:00:00 16,9 15,8 11 6 N 1018,7 8
21.06.2018 02:00:00 17,7 16,5 8 4 N 1019,4 5
21.06.2018 01:00:00 18,3 17,1 9 5 NW 1019,7 6
21.06.2018 00:00:00 19,3 17,6 4 2 NW 1019,4 8
20.06.2018 23:00:00 20,4 18,3 4 2 N 1018,5 8
20.06.2018 22:00:00 21,1 18,1 4 2 NNE 1017,9 12
20.06.2018 21:00:00 22,0 18,6 8 4 NNE 1017,4 14
20.06.2018 20:00:00 22,7 19,0 13 7 N 1017,3 15
20.06.2018 19:00:00 24,2 19,1 9 5 N 1017,2 16
20.06.2018 18:00:00 23,9 16,4 9 5 SW 1017,0 30
20.06.2018 17:00:00 25,2 16,2 15 8 WSW 1016,6 30
20.06.2018 16:00:00 29,8 18,5 8 4 NNW 1015,3 30
20.06.2018 15:00:00 29,6 18,1 9 5 N 1015,4 30
20.06.2018 14:00:00 29,1 18,2 8 4 WNW 1015,5 30
20.06.2018 13:00:00 27,6 18,9 4 2 N 1015,9 22
20.06.2018 12:00:00 25,6 18,4 4 2 NE 1016,2 28
20.06.2018 11:00:00 24,0 18,0 4 2 E 1016,7 30
20.06.2018 10:00:00 21,5 16,7 4 2 ENE 1016,9 30
20.06.2018 09:00:00 18,9 15,7 0 0 N 1017,1 30
20.06.2018 08:00:00 16,3 14,7 0 0 N 1017,4 20
20.06.2018 07:00:00 15,8 14,4 2 1 SSE 1017,5 14
20.06.2018 06:00:00 16,0 14,5 0 0 N 1017,3 12
20.06.2018 05:00:00 16,3 14,5 0 0 N 1017,2 20
20.06.2018 04:00:00 16,9 14,9 0 0 N 1017,2 18
20.06.2018 03:00:00 17,6 15,2 0 0 N 1017,4 25
20.06.2018 02:00:00 18,8 15,7 0 0 N 1017,5 30
20.06.2018 01:00:00 19,8 16,1 2 1 ENE 1017,4 30
20.06.2018 00:00:00 21,0 17,0 0 0 N 1017,3 30
19.06.2018 23:00:00 22,6 16,8 2 1 NE 1016,7 30
19.06.2018 22:00:00 24,6 16,8 2 1 NE 1016,0 30
19.06.2018 21:00:00 27,1 17,8 5 3 NNE 1015,4 30
19.06.2018 20:00:00 28,6 19,2 4 2 NNE 1015,0 30
19.06.2018 19:00:00 29,7 18,5 4 2 NE 1015,0 30
19.06.2018 18:00:00 30,0 18,2 8 4 N 1015,4 30
19.06.2018 17:00:00 29,6 18,5 9 5 N 1015,6 30
19.06.2018 16:00:00 29,5 15,8 8 4 E 1016,2 30
19.06.2018 15:00:00 27,9 16,9 5 3 NE 1016,8 30
19.06.2018 14:00:00 26,7 15,7 5 3 E 1017,6 30
19.06.2018 13:00:00 24,5 15,7 8 4 NE 1018,5 30
19.06.2018 12:00:00 22,6 15,2 8 4 E 1019,1 24
19.06.2018 11:00:00 21,2 15,7 5 3 E 1019,9 30
19.06.2018 10:00:00 18,8 14,2 8 4 E 1020,7 30
19.06.2018 09:00:00 16,5 13,8 4 2 ENE 1021,1 28
19.06.2018 08:00:00 13,5 12,9 2 1 NNE 1021,6 20
19.06.2018 07:00:00 12,7 11,9 2 1 ESE 1021,7 8
19.06.2018 06:00:00 13,7 12,6 4 2 NNE 1021,6 24
19.06.2018 05:00:00 14,0 12,7 8 4 NNE 1021,8 30
19.06.2018 04:00:00 14,1 12,7 5 3 NNE 1022,3 30
19.06.2018 03:00:00 14,6 12,6 5 3 NNE 1022,5 30
19.06.2018 02:00:00 15,1 12,6 8 4 NNE 1023,0 30
19.06.2018 01:00:00 16,0 12,4 8 4 NE 1023,5 30
19.06.2018 00:00:00 17,2 11,7 8 4 NNE 1023,6 30
18.06.2018 23:00:00 18,3 13,4 4 2 NNE 1023,4 40
18.06.2018 22:00:00 20,8 9,4 9 5 NNE 1022,7 30
18.06.2018 21:00:00 23,1 13,3 9 5 NNE 1022,1 30
18.06.2018 20:00:00 24,5 15,5 11 6 NNE 1021,7 40
18.06.2018 19:00:00 25,2 16,7 18 10 N 1021,8 30
18.06.2018 18:00:00 25,4 16,9 15 8 NNE 1022,1 30
18.06.2018 17:00:00 25,4 17,5 15 8 NNE 1022,5 40
18.06.2018 16:00:00 25,5 18,4 16 9 N 1023,0 30
18.06.2018 15:00:00 - - - - - - -
18.06.2018 14:00:00 25,7 17,7 9 5 NE 1023,4 40
18.06.2018 13:00:00 23,9 16,9 9 5 NE 1024,0 30
18.06.2018 12:00:00 21,3 15,8 9 5 NE 1024,7 30
18.06.2018 11:00:00 18,9 15,1 11 6 NNE 1025,3 40
18.06.2018 10:00:00 16,5 13,8 8 4 NNE 1026,2 28
18.06.2018 09:00:00 15,0 13,8 8 4 NE 1026,4 15
18.06.2018 08:00:00 14,3 13,6 5 3 NE 1026,3 12
18.06.2018 07:00:00 14,5 13,9 5 3 NE 1026,1 7
18.06.2018 06:00:00 14,5 14,0 5 3 NNE 1026,0 6
18.06.2018 05:00:00 14,5 14,0 8 4 NNE 1026,0 2,0
18.06.2018 04:00:00 14,6 14,1 13 7 NNE 1026,0 6
18.06.2018 03:00:00 14,6 14,1 8 4 NNE 1026,2 3,5
18.06.2018 02:00:00 14,8 14,0 13 7 N 1026,5 2,0
18.06.2018 01:00:00 15,0 14,2 8 4 NNE 1026,4 8
18.06.2018 00:00:00 15,1 14,1 9 5 N 1026,5 10
17.06.2018 23:00:00 15,6 14,1 8 4 N 1026,3 25
17.06.2018 22:00:00 17,5 14,0 13 7 N 1025,6 30
17.06.2018 21:00:00 19,2 14,0 16 9 N 1025,1 30
17.06.2018 20:00:00 20,9 13,6 15 8 N 1024,6 40
17.06.2018 19:00:00 21,8 14,2 21 11 N 1024,4 30
17.06.2018 18:00:00 22,1 12,5 16 9 N 1024,3 30
17.06.2018 17:00:00 23,5 14,0 22 12 N 1023,8 40
17.06.2018 16:00:00 24,5 14,9 8 4 NNE 1023,5 27
17.06.2018 15:00:00 22,9 13,0 13 7 N 1024,0 40
17.06.2018 14:00:00 22,5 12,7 8 4 NNE 1024,1 40
17.06.2018 13:00:00 20,9 12,7 11 6 N 1024,5 30
17.06.2018 12:00:00 19,3 11,6 8 4 NNE 1024,6 23
17.06.2018 11:00:00 17,0 11,8 5 3 NE 1025,1 40
17.06.2018 10:00:00 15,2 11,7 5 3 NE 1025,2 22
17.06.2018 09:00:00 12,6 11,2 5 3 ENE 1025,2 11
17.06.2018 08:00:00 11,8 11,0 4 2 NNE 1025,0 12
17.06.2018 07:00:00 11,8 11,2 8 4 N 1024,6 8
17.06.2018 06:00:00 11,8 11,3 8 4 NNE 1024,2 -
17.06.2018 05:00:00 11,7 11,1 8 4 NNE 1024,1 6
17.06.2018 04:00:00 12,0 11,2 9 5 N 1024,0 8
17.06.2018 03:00:00 13,0 11,6 11 6 N 1024,1 12
17.06.2018 02:00:00 13,8 11,5 8 4 NNE 1023,7 15
17.06.2018 01:00:00 14,1 11,3 11 6 NNE 1023,9 24
17.06.2018 00:00:00 14,2 12,1 9 5 NNE 1023,6 30
16.06.2018 23:00:00 14,5 13,0 11 6 NNE 1023,2 20
16.06.2018 22:00:00 14,8 13,3 5 3 NNE 1022,5 22
16.06.2018 21:00:00 14,7 13,2 13 7 N 1022,3 22
16.06.2018 20:00:00 15,6 13,4 15 8 N 1021,8 15

tt = temperature
td = dewpoint
ff = wind speed
dd = wind direction
ppp = reduced air pressure
vv = visibility

Next stations